Location: *
(58.4167°N, 22.5000°E)
Time: 16:41:25
(UTC+00:00)

Cosmos 1805 - Pass Details

Date: 22 September 2019
Orbit: 525 x 532 km, 82.5° (Epoch: 20 October)

Event Time Altitude Azimuth Distance (km) Brightness Sun altitude
Exits shadow 19:07:15 - 205° (SSW) 2,080 6.1 -20.0°
Reaches altitude 10° 19:08:00 10° 207° (SSW) 1,776 5.8 -20.0°
Maximum altitude 19:11:51 57° 287° (WNW) 629 3.8 -20.5°
Drops below altitude 10° 19:15:43 10° 7° (N) 1,786 6.3 -20.8°
Sets 19:17:54 0° 12° (NNE) 2,679 7.2 -21.1°
